Content
SEND FEEDBACK

Daily
Averages
Monthly
Summary
Canada

MONTREAL, QUEBEC


Home > North America > Canada > Quebec
Elevation: 118 feet     Latitude: 45 28N     Longitude: 073 45W

WEATHER
 
SELECT A DAY
Number of Records: 201,452;   Date Range: 1/1/95 - 10/21/14
 
SHARE

PRINT THIS DATA

[ ← Previous Day ]
WEATHER ALMANAC - SEPTEMBER 8, 2013
[ Next Day → ]
[ °C ]   °F
Weather ElementAverageHighLow
Temperature57.9 °F64.4 °F (3:00 pm)50 °F (11:00 pm)
Dewpoint43.1 °F60.8 °F (2:00 am)33 °F (2:00 pm)
Humidity59 %94 % (1:00 am)24 % (2:00 pm)
Barometer29.95 in30.09 in (10:00 pm)29.80 in (1:52 am)
Wind Speed10.1 mph17.3 mph (3:00 am)
Wind Gust25.3 mph (5:00 pm)
Weather ElementAverage
Visibility20.3 mi
Wind DirectionWNW (301.7 °)

Weather ElementTotal
Precipitation---
Heating Degree Days7.8 (Base 65)
Growing Degree Days7.2 (Base 50)
Averaged from 29 records on September 8, 2013
WEATHER CONDITIONS BREAKOUT
WIND DIRECTION BREAKOUT
WEATHER BY HOUR - SEPTEMBER 8, 2013
[ °C ]   °F
Local TimeTemperatureDewpointHumidityBarometerVisibilityWind DirectionWind SpeedGust SpeedPrecipitationEventsConditions
12:21 AM62.6 °F59.0 °F88 %29.81 in12.0 miWSW (250°)11.5 mphRainLight Rain Showers
1:00 AM60.8 °F59.0 °F94 %29.81 in10.0 miWSW (240°)9.2 mphRainLight Rain Showers
1:52 AM60.8 °F59.0 °F94 %29.80 in15.0 miWest (260°)6.9 mphOvercast
2:00 AM62.0 °F60.0 °F90 %29.80 in15.0 miWest (260°)5.8 mphRainLight Rain Showers
2:00 AM62.6 °F60.8 °F94 %29.80 in15.0 miWest (260°)5.8 mphOvercast
3:00 AM62.6 °F53.6 °F72 %29.80 in15.0 miNNW (340°)17.3 mphOvercast
4:00 AM59.0 °F50.0 °F72 %29.82 in15.0 miNorth (360°)12.7 mphOvercast
5:00 AM57.2 °F44.6 °F63 %29.84 in15.0 miNorth (350°)13.8 mph20.7 mphScattered Clouds
6:00 AM53.6 °F44.6 °F72 %29.87 in15.0 miNW (320°)6.9 mphPartly Cloudy
7:00 AM51.8 °F42.8 °F71 %29.91 in15.0 miNNW (330°)8.1 mphPartly Cloudy
8:00 AM53.0 °F40.0 °F51 %29.93 in15.0 miNNW (330°)11.5 mphScattered Clouds
8:00 AM53.6 °F39.2 °F58 %29.93 in15.0 miNW (320°)12.7 mphPartly Cloudy
9:00 AM53.6 °F41.0 °F62 %29.96 in15.0 miNorth (360°)10.4 mph17.3 mphMostly Cloudy
10:00 AM53.6 °F37.4 °F54 %29.98 in30.0 miNNW (330°)13.8 mph20.7 mphMostly Cloudy
11:00 AM57.2 °F41.0 °F55 %29.98 in30.0 miWest (280°)8.1 mphScattered Clouds
12:00 PM59.0 °F39.2 °F48 %29.98 in30.0 miWNW (300°)9.2 mphPartly Cloudy
1:00 PM60.8 °F37.4 °F42 %29.98 in30.0 miWest (280°)10.4 mph19.6 mphScattered Clouds
2:00 PM61.0 °F33.0 °F24 %29.98 in28.0 miWNW (290°)10.4 mphPartly Cloudy
2:00 PM60.8 °F33.8 °F36 %29.98 in30.0 miWNW (300°)13.8 mphMostly Cloudy
3:00 PM64.4 °F39.2 °F40 %29.99 in30.0 miWNW (290°)16.1 mphMostly Cloudy
4:00 PM60.8 °F37.4 °F42 %29.99 in30.0 miNW (310°)12.7 mph24.2 mphScattered Clouds
5:00 PM62.6 °F35.6 °F37 %30.01 in30.0 miNW (320°)11.5 mph25.3 mphPartly Cloudy
6:00 PM60.8 °F35.6 °F39 %30.02 in30.0 miNW (320°)15.0 mphPartly Cloudy
7:00 PM59.0 °F35.6 °F42 %30.04 in30.0 miNW (310°)10.4 mphPartly Cloudy
8:00 PM55.0 °F37.0 °F39 %30.07 in15.0 miWNW (300°)6.9 mphClear
8:00 PM55.4 °F37.4 °F51 %30.07 in15.0 miWNW (300°)6.9 mphPartly Cloudy
9:00 PM53.6 °F37.4 °F54 %30.08 in15.0 miWest (280°)4.6 mphClear
10:00 PM51.8 °F39.2 °F62 %30.09 in15.0 miWest (270°)5.8 mphClear
11:00 PM50.0 °F39.2 °F66 %30.09 in15.0 miWNW (290°)3.5 mphClear
Hourly data recorded from CYUL, located miles away from Montreal, Quebec







STORIES FROM OUR PARTNERS